Date String (YYYY-MM-DD hh:mm:ss) UTC,Instrument flags,absolute air pressure of the measurement (hPa),sample flow rate (lpm),inlet stack bypass flow (lpm),air temperature of the measurement (°C),ambient temperature measured by the external sensor (°C),aerosol sample conditioner tube jacket temperature (°C),OPC LED temperature (°C),internal box temperature (°C),relative humidity of the measurement (%),span deviation,mass concentration of particles derived from Lorenz-Mie calculation of OPC scattering (μg/m³),mass concentration of particles derived from Lorenz-Mie calculation of OPC scattering (μg/m³),mass concentration of particles derived from Lorenz-Mie calculation of OPC scattering (μg/m³)
DateTimeUTC,F1_M11,P_M11,Q1_M11,Q2_M11,T1_M11,T2_M11,T3_M11,T4_M11,T5_M11,U1_M11,ZSPAN_M11,X2_M11,X0_M11,X1_M11
2024-05-27 15:00:00,SystemResetWarning,0833.1,5.00,000.00,029.6,028.8,000.0,037.9,031.3,016.4,0000.0,0003.62,0009.55,0002.87
2024-05-27 15:01:00,SystemResetWarning,0833.0,5.00,000.00,029.6,028.8,000.0,037.9,031.3,015.8,0000.0,0003.60,0009.78,0002.87
2024-05-27 15:02:00,SystemResetWarning,0833.3,5.00,000.00,029.6,028.8,000.0,037.9,031.3,015.9,0000.0,0003.58,0009.96,0002.87
2024-05-27 15:03:00,SystemResetWarning,0833.1,4.99,000.00,029.6,028.8,000.0,037.9,031.3,015.9,0000.0,0003.55,0010.53,0002.86
2024-05-27 15:04:00,SystemResetWarning,0833.2,5.01,000.00,029.6,028.7,000.0,037.9,031.3,015.8,0000.0,0003.51,0010.90,0002.86
2024-05-27 15:05:00,SystemResetWarning,0833.2,5.00,000.00,029.6,028.7,000.0,037.9,031.3,016.3,0000.0,0003.49,0010.16,0002.86
2024-05-27 15:06:00,SystemResetWarning,0833.2,5.00,000.00,029.6,028.8,000.0,037.9,031.3,016.5,0000.0,0003.48,0010.05,0002.86
2024-05-27 15:07:00,SystemResetWarning,0833.2,5.00,000.00,029.6,028.8,000.0,037.9,031.3,016.4,0000.0,0003.42,0009.51,0002.85
2024-05-27 15:08:00,SystemResetWarning,0833.1,5.00,000.00,029.6,028.8,000.0,037.9,031.3,016.0,0000.0,0003.41,0009.53,0002.84
2024-05-27 15:09:00,SystemResetWarning,0833.2,5.00,000.00,029.6,028.8,000.0,037.9,031.3,015.9,0000.0,0003.39,0009.43,0002.84
2024-05-27 15:10:00,SystemResetWarning,0833.1,5.00,000.00,029.6,028.8,000.0,037.9,031.3,015.4,0000.0,0003.35,0009.16,0002.82
2024-05-27 15:11:00,SystemResetWarning,0833.0,5.01,000.00,029.6,028.8,000.0,037.9,031.3,015.6,0000.0,0003.34,0009.22,0002.81
2024-05-27 15:12:00,SystemResetWarning,0833.1,5.00,000.00,029.6,028.8,000.0,037.9,031.3,015.5,0000.0,0003.34,0008.83,0002.81
2024-05-27 15:13:00,SystemResetWarning,0833.1,5.00,000.00,029.6,028.8,000.0,037.9,031.3,016.0,0000.0,0003.36,0008.35,0002.82
2024-05-27 15:14:00,SystemResetWarning,0833.1,4.99,000.00,029.6,028.8,000.0,038.0,031.3,016.5,0000.0,0003.38,0008.13,0002.81
2024-05-27 15:15:00,SystemResetWarning,0833.1,4.99,000.00,029.6,028.8,000.0,038.0,031.3,016.5,0000.0,0003.40,0008.03,0002.82
2024-05-27 15:16:00,SystemResetWarning,0833.2,5.00,000.00,029.6,028.8,000.0,038.0,031.3,016.2,0000.0,0003.44,0008.86,0002.84
2024-05-27 15:17:00,SystemResetWarning,0833.2,5.01,000.00,029.6,028.8,000.0,038.0,031.3,016.4,0000.0,0003.45,0009.08,0002.85
2024-05-27 15:18:00,SystemResetWarning,0833.2,5.00,000.00,029.6,028.8,000.0,038.0,031.3,016.5,0000.0,0003.46,0008.92,0002.87
2024-05-27 15:19:00,SystemResetWarning,0833.3,4.99,000.00,029.6,028.8,000.0,038.0,031.3,016.4,0000.0,0003.47,0008.94,0002.89
2024-05-27 15:20:00,SystemResetWarning,0833.2,5.00,000.00,029.6,028.8,000.0,038.0,031.3,016.8,0000.0,0003.50,0009.05,0002.90
2024-05-27 15:21:00,SystemResetWarning,0833.2,5.00,000.00,029.6,028.8,000.0,038.0,031.3,017.3,0000.0,0003.50,0009.00,0002.91
2024-05-27 15:22:00,SystemResetWarning,0833.2,5.00,000.00,029.6,028.8,000.0,038.0,031.3,016.3,0000.0,0003.52,0008.67,0002.93
2024-05-27 15:23:00,SystemResetWarning,0833.2,5.00,000.00,029.6,028.8,000.0,038.0,031.3,016.2,0000.0,0003.52,0009.05,0002.93
2024-05-27 15:24:00,SystemResetWarning,0833.2,5.00,000.00,029.6,028.8,000.0,038.0,031.3,016.0,0000.0,0003.53,0009.37,0002.93
2024-05-27 15:25:00,SystemResetWarning,0833.2,5.00,000.00,029.6,028.8,000.0,038.0,031.3,016.2,0000.0,0003.53,0009.43,0002.93
2024-05-27 15:26:00,SystemResetWarning,0833.2,5.00,000.00,029.6,028.8,000.0,038.0,031.4,016.4,0000.0,0003.56,0009.28,0002.95
2024-05-27 15:27:00,SystemResetWarning,0833.2,5.00,000.00,029.6,028.8,000.0,038.0,031.3,015.9,0000.0,0003.57,0009.31,0002.97
2024-05-27 15:28:00,SystemResetWarning,0833.3,5.01,000.00,029.7,028.8,000.0,038.0,031.4,015.9,0000.0,0003.55,0009.01,0002.96
2024-05-27 15:29:00,SystemResetWarning,0833.2,5.00,000.00,029.7,028.8,000.0,038.0,031.4,016.3,0000.0,0003.60,0009.68,0002.97
2024-05-27 15:30:00,SystemResetWarning,0833.2,5.00,000.00,029.7,028.8,000.0,038.0,031.4,016.4,0000.0,0003.59,0010.59,0002.98
2024-05-27 15:31:00,SystemResetWarning,0833.2,5.00,000.00,029.7,028.8,000.0,038.0,031.4,016.2,0000.0,0003.59,0010.39,0003.00
2024-05-27 15:32:00,SystemResetWarning,0833.3,5.00,000.00,029.7,028.8,000.0,038.0,031.4,016.2,0000.0,0003.64,0010.64,0003.01
2024-05-27 15:33:00,SystemResetWarning,0833.3,5.00,000.00,029.7,028.8,000.0,038.0,031.4,016.4,0000.0,0003.67,0010.88,0003.04
2024-05-27 15:34:00,SystemResetWarning,0833.3,5.00,000.00,029.7,028.8,000.0,038.0,031.4,017.2,0000.0,0003.70,0010.63,0003.08
2024-05-27 15:35:00,SystemResetWarning,0833.3,5.00,000.00,029.7,028.9,000.0,038.0,031.4,016.9,0000.0,0003.71,0010.68,0003.10
2024-05-27 15:36:00,SystemResetWarning,0833.3,5.00,000.00,029.7,028.9,000.0,038.0,031.4,016.7,0000.0,0003.75,0011.42,0003.13
2024-05-27 15:37:00,SystemResetWarning,0833.2,5.01,000.00,029.7,028.9,000.0,038.0,031.4,015.7,0000.0,0003.80,0012.68,0003.15
2024-05-27 15:38:00,SystemResetWarning,0833.2,5.00,000.00,029.7,028.9,000.0,038.0,031.4,015.6,0000.0,0003.82,0013.01,0003.16
2024-05-27 15:39:00,SystemResetWarning,0833.3,5.00,000.00,029.7,028.9,000.0,038.0,031.4,015.8,0000.0,0003.87,0014.20,0003.18
2024-05-27 15:40:00,SystemResetWarning,0833.3,5.00,000.00,029.7,028.9,000.0,038.0,031.4,015.3,0000.0,0003.86,0014.77,0003.17
2024-05-27 15:41:00,SystemResetWarning,0833.3,4.99,000.00,029.7,028.9,000.0,038.0,031.4,015.8,0000.0,0003.84,0014.36,0003.17
2024-05-27 15:42:00,SystemResetWarning,0833.3,4.99,000.00,029.7,028.9,000.0,038.0,031.4,016.2,0000.0,0003.83,0014.30,0003.17
2024-05-27 15:43:00,SystemResetWarning,0833.3,4.99,000.00,029.7,028.9,000.0,038.0,031.4,016.4,0000.0,0003.83,0014.33,0003.19
2024-05-27 15:44:00,SystemResetWarning,0833.3,5.00,000.00,029.7,028.9,000.0,038.0,031.4,016.5,0000.0,0003.80,0013.95,0003.18
2024-05-27 15:45:00,SystemResetWarning,0833.3,5.00,000.00,029.7,028.9,000.0,038.0,031.4,016.5,0000.0,0003.81,0014.02,0003.17
2024-05-27 15:46:00,SystemResetWarning,0833.3,5.00,000.00,029.7,028.9,000.0,038.0,031.4,015.7,0000.0,0003.79,0013.79,0003.17
2024-05-27 15:47:00,SystemResetWarning,0833.3,5.00,000.00,029.7,028.9,000.0,038.0,031.4,015.7,0000.0,0003.79,0013.10,0003.17
2024-05-27 15:48:00,SystemResetWarning,0833.3,5.00,000.00,029.7,028.9,000.0,038.1,031.4,015.6,0000.0,0003.74,0011.74,0003.16
2024-05-27 15:49:00,SystemResetWarning,0833.3,5.00,000.00,029.7,028.9,000.0,038.1,031.4,015.5,0000.0,0003.74,0010.94,0003.16
2024-05-27 15:50:00,SystemResetWarning,0833.4,5.01,000.00,029.8,029.0,000.0,038.1,031.4,015.7,0000.0,0003.71,0009.48,0003.15
2024-05-27 15:51:00,SystemResetWarning,0833.3,5.00,000.00,029.8,029.0,000.0,038.1,031.4,015.4,0000.0,0003.67,0008.31,0003.15
2024-05-27 15:52:00,SystemResetWarning,0833.3,5.00,000.00,029.8,029.0,000.0,038.1,031.5,016.2,0000.0,0003.64,0007.63,0003.15
2024-05-27 15:53:00,SystemResetWarning,0833.3,5.01,000.00,029.8,029.0,000.0,038.1,031.5,016.3,0000.0,0003.70,0008.98,0003.16
2024-05-27 15:54:00,SystemResetWarning,0833.3,5.00,000.00,029.8,029.0,000.0,038.1,031.5,015.8,0000.0,0003.73,0009.04,0003.14
2024-05-27 15:55:00,SystemResetWarning,0833.2,5.00,000.00,029.8,029.0,000.0,038.1,031.5,015.4,0000.0,0003.74,0009.13,0003.14
2024-05-27 15:56:00,SystemResetWarning,0833.2,5.00,000.00,029.8,029.0,000.0,038.1,031.5,016.2,0000.0,0003.75,0009.25,0003.15
2024-05-27 15:57:00,SystemResetWarning,0833.2,5.00,000.00,029.8,029.0,000.0,038.1,031.5,016.2,0000.0,0003.77,0009.42,0003.15
2024-05-27 15:58:00,SystemResetWarning,0833.2,5.00,000.00,029.8,029.0,000.0,038.1,031.5,016.0,0000.0,0003.75,0009.51,0003.14
2024-05-27 15:59:00,SystemResetWarning,0833.2,5.00,000.00,029.8,029.0,000.0,038.1,031.5,015.9,0000.0,0003.74,0010.30,0003.14
